Location: Bannatyne
(13.0833°N, 59.5333°W)
Time: 01:01:13
(UTC+00:00)

Intelsat 5-2 Rocket - Pass Details

Date: 18 October 2019
Orbit: 336 x 10154 km, 23.6° (Epoch: 22 November)

Event Time Altitude Azimuth Distance (km) Brightness Sun altitude
Rises 23:07:36 0° 291° (WNW) 2,749 7.4 -22.6°
Reaches altitude 10° 23:09:04 10° 292° (WNW) 2,132 6.7 -22.9°
Maximum altitude 23:13:41 88° 19° (NNE) 1,207 4.3 -24.0°
Enters shadow 23:19:03 34° 110° (ESE) 2,910 5.9 -25.3°
